Starlink 35432

operational
NORAD ID: 66021 Int'l Des: 2025-232 Owner: SPXS Country: US Constellation: starlink
LEOCIRCULAR

About Starlink 35432

Description loading...

Live Position

Loading 3D Globe...

Upcoming Passes

Altitude History

Altitude vs Time

uPlot chart will show altitude changes over time

Two-Line Element Set

1 66021C 25232S 25290.81298611 -.00235590 00000+0 -33522-3 0 2900
2 66021 53.1576 56.8313 0003729 294.8933 1.8013 16.05068249 14
Epoch: Oct 17, 2025 • Age: 60 hours

Current Status

Altitude 271.0 km
Velocity 7.75 km/s
Sub-Earth Point 52.81°N, 88.4°W
Launch Date Oct 16, 2025
Age 3 days
Type internet

Technical Details

Classification Payload
Mass 575.00 kg
Dry Mass 530.00 kg
Total Mass 575.00 kg
Length 0.30 m
Diameter 4.10 m
Span 29.00 m
Shape Box + pan
Manufacturer SPXS
Bus Type Starlink V2MO
Phase Status In Orbit
Owner/State SPXS/US

Large Constellations

Loading constellations...